Weather History for St. Croix, VI

Change the Weather History Date:

Thursday, November 8, 2012

  Actual Average Record
Temperature  
Mean Temperature 82 °F 81 °F  
Max Temperature 89 °F 87 °F 93 °F (1993)
Min Temperature 75 °F 76 °F 65 °F (1974)
Degree Days  
Heating Degree Days 0 0  
Month to date heating degree days 0 0  
Since 1 July heating degree days 0 0  
Cooling Degree Days 17 16  
Month to date cooling degree days 137 128  
Year to date cooling degree days 4544 5055  
Growing Degree Days 32 (Base 50)    
Moisture  
Dew Point 72 °F    
Average Humidity 75    
Maximum Humidity 94    
Minimum Humidity 56    
Precipitation  
Precipitation 0.00 in 0.20 in 4.24 in (1984)
Month to date precipitation 0.24 1.62  
Year to date precipitation 24.75 31.86  
Sea Level Pressure  
Sea Level Pressure 29.92 in    
Wind  
Wind Speed 8 mph (ENE)    
Max Wind Speed 16 mph    
Max Gust Speed 20 mph    
Visibility 10 miles    
Events      
T = Trace of Precipitation, MM = Missing Value Source: NWS Daily Summary

Daily Weather History Graph

Daily Weather History Graph

Search for Another Location

Airport:

Trip Planner

Search our weather history database for the weather conditions in past years. The results will help you decide how hot, cold, wet, or windy it might be!

Date:

Astronomy

Nov. 08, 2012 Rise Set
Actual Time 6:21 AM AST 5:44 PM AST
Civil Twilight 5:58 AM AST 6:07 PM AST
Nautical Twilight 5:32 AM AST 6:33 PM AST
Astronomical Twilight 5:06 AM AST 6:59 PM AST
Moon 1:02 AM AST (11/8) 1:38 PM AST (11/8)
Length of Visible Light 12h 08m
Length of Day
11h 23m
Waning Crescent, 33% of the Moon is Illuminated
Nov 8
Waning Crescent
Nov 13
New
Nov 20
First Quarter
Nov 28
Full
Dec 6
Last Quarter

Hourly Weather History & Observations

Time (AST) Temp. Heat Index Dew Point Humidity Pressure Visibility Wind Dir Wind Speed Gust Speed Precip Events Conditions
12:53 AM 75.9 °F - 73.0 °F 91% 29.94 in 10.0 mi North 4.6 mph - N/A   Clear
1:53 AM 75.9 °F - 73.0 °F 91% 29.92 in 10.0 mi NNE 4.6 mph - N/A   Clear
2:53 AM 75.0 °F - 72.0 °F 90% 29.90 in 10.0 mi NNE 5.8 mph - N/A   Clear
3:53 AM 75.0 °F - 72.0 °F 90% 29.90 in 10.0 mi NNE 4.6 mph - N/A   Clear
4:53 AM 75.0 °F - 72.0 °F 90% 29.90 in 10.0 mi NNE 4.6 mph - N/A   Partly Cloudy
5:53 AM 75.0 °F - 72.0 °F 90% 29.91 in 10.0 mi NNE 4.6 mph - N/A   Partly Cloudy
6:53 AM 75.9 °F - 72.0 °F 87% 29.94 in 10.0 mi North 4.6 mph - N/A   Clear
7:53 AM 82.0 °F 87.4 °F 73.0 °F 74% 29.95 in 10.0 mi ENE 9.2 mph - N/A   Partly Cloudy
8:53 AM 84.9 °F 90.1 °F 71.1 °F 63% 29.96 in 10.0 mi ESE 12.7 mph - N/A   Scattered Clouds
10:53 AM 87.1 °F 93.6 °F 72.0 °F 61% 29.97 in 10.0 mi ESE 12.7 mph 19.6 mph N/A   Scattered Clouds
11:53 AM 88.0 °F 93.8 °F 71.1 °F 57% 29.95 in 10.0 mi ESE 13.8 mph - N/A   Partly Cloudy
12:53 PM 89.1 °F 96.0 °F 72.0 °F 57% 29.93 in 10.0 mi ESE 12.7 mph - N/A   Scattered Clouds
1:53 PM 87.1 °F 92.8 °F 71.1 °F 59% 29.90 in 10.0 mi SE 12.7 mph - N/A   Scattered Clouds
2:53 PM 87.1 °F 93.6 °F 72.0 °F 61% 29.89 in 10.0 mi ESE 10.4 mph - N/A   Partly Cloudy
3:53 PM 86.0 °F 91.5 °F 71.1 °F 61% 29.88 in 10.0 mi ESE 10.4 mph 16.1 mph N/A   Partly Cloudy
4:53 PM 84.0 °F 89.0 °F 71.1 °F 65% 29.89 in 10.0 mi ESE 10.4 mph - N/A   Partly Cloudy
5:53 PM 81.0 °F 84.4 °F 70.0 °F 69% 29.89 in 10.0 mi East 8.1 mph - N/A   Clear
6:53 PM 78.1 °F - 72.0 °F 81% 29.91 in 10.0 mi NNE 3.5 mph - N/A   Clear
7:53 PM 77.0 °F - 72.0 °F 84% 29.92 in 10.0 mi North 4.6 mph - N/A   Clear
8:53 PM 77.0 °F - 72.0 °F 84% 29.93 in 10.0 mi NE 4.6 mph - N/A   Clear
9:53 PM 75.9 °F - 72.0 °F 87% 29.94 in 10.0 mi NE 4.6 mph - N/A   Clear
10:53 PM 78.1 °F - 72.0 °F 81% 29.93 in 10.0 mi NE 5.8 mph - N/A   Clear
11:53 PM 79.0 °F - 72.0 °F 79% 29.91 in 10.0 mi NE 6.9 mph - N/A   Clear